contact:dominique.lefevre@mio.osupytheas.fr, maurice.libes@osupytheas.fr, didier.mallarino@osupytheas.fr
Project:EMSO http://www.emso-fr.org/EMSO-France
Depth: 2436.0 m
Title:EMSO Ligure Ouest : Data MII capteur AQUADOPP
Date,Latitude,Longitude,X_East,Y_North,Z_Up,Amplitude_X,Amplitude_Y,Amplitude_Z,Batterie,SoundSpeed,Heading,Pitch,Roll,Pressure,TIS,Speed,Direction
, degrees North, degrees East, m.s-1, m.s-1,m.s-1, 1, 1, 1, Volt, m.s-1, degree, degree, degree, dbar, degree_C, m.s-1, degree
2023-02-23T00:04:03,42.805,6.029,-0.012,-0.026,-0.017,106.0,105.0,103.0,13.4,1505.2,340.9,-0.8,1.8,2471.09,13.28,0.028,204.8
2023-02-23T00:07:03,42.805,6.029,-0.006,-0.038,-0.016,107.0,105.0,103.0,13.4,1505.2,333.8,-0.8,1.8,2471.122,13.28,0.038,189.0
2023-02-23T00:10:03,42.805,6.029,-0.008,-0.043,-0.04,106.0,106.0,103.0,13.4,1505.2,334.6,-0.8,1.8,2471.118,13.28,0.043,190.5
2023-02-23T00:13:03,42.805,6.029,-0.001,-0.021,-0.053,107.0,106.0,103.0,13.4,1505.2,318.3,-0.7,1.8,2471.062,13.28,0.021,182.7
2023-02-23T00:16:03,42.805,6.029,-0.019,-0.026,-0.044,106.0,106.0,104.0,13.4,1505.2,327.4,-0.7,1.8,2471.067,13.29,0.032,216.2
2023-02-23T00:19:03,42.805,6.029,-0.014,-0.019,-0.017,107.0,104.0,103.0,13.3,1505.2,341.8,-0.8,1.8,2471.067,13.29,0.023,216.4
2023-02-23T00:22:03,42.805,6.029,0.004,-0.031,-0.029,106.0,105.0,103.0,13.3,1505.2,323.4,-0.8,1.8,2471.049,13.29,0.031,172.7
2023-02-23T00:25:03,42.805,6.029,-0.019,-0.017,-0.024,108.0,106.0,104.0,13.4,1505.2,337.5,-0.8,1.8,2471.068,13.29,0.025,228.2
2023-02-23T00:28:03,42.805,6.029,0.009,-0.03,-0.021,105.0,105.0,103.0,13.3,1505.2,315.5,-0.8,1.8,2471.056,13.29,0.031,163.3
2023-02-23T00:31:03,42.805,6.029,-0.005,-0.028,-0.029,106.0,106.0,104.0,13.4,1505.2,331.2,-0.7,1.8,2471.056,13.29,0.028,190.1
2023-02-23T00:34:03,42.805,6.029,0.004,-0.037,-0.05,106.0,105.0,103.0,13.3,1505.2,323.7,-0.8,1.9,2471.037,13.29,0.037,173.8
2023-02-23T00:37:03,42.805,6.029,-0.013,-0.027,-0.032,107.0,106.0,102.0,13.4,1505.2,326.0,-0.8,1.8,2471.007,13.29,0.029,205.7
2023-02-23T00:40:03,42.805,6.029,0.009,-0.046,-0.019,106.0,106.0,104.0,13.3,1505.2,324.1,-0.8,1.9,2471.042,13.29,0.046,168.9
2023-02-23T00:43:03,42.805,6.029,0.009,-0.026,-0.002,106.0,106.0,102.0,13.4,1505.2,323.2,-0.7,1.8,2471.028,13.29,0.027,160.9
2023-02-23T00:46:03,42.805,6.029,-0.002,-0.018,0.005,107.0,105.0,105.0,13.4,1505.2,328.5,-0.8,1.8,2471.003,13.29,0.018,186.3
2023-02-23T00:49:03,42.805,6.029,-0.019,-0.014,-0.028,106.0,106.0,103.0,13.3,1505.2,322.7,-0.8,1.8,2471.057,13.29,0.023,233.6
2023-02-23T00:52:03,42.805,6.029,0.004,-0.032,-0.004,108.0,105.0,103.0,13.4,1505.2,332.6,-0.8,1.8,2471.033,13.29,0.032,172.9
2023-02-23T00:55:03,42.805,6.029,-0.009,-0.034,-0.024,106.0,105.0,104.0,13.3,1505.2,328.8,-0.7,1.8,2471.008,13.29,0.035,194.8
2023-02-23T00:58:03,42.805,6.029,-0.003,-0.025,-0.011,106.0,107.0,104.0,13.3,1505.2,332.6,-0.8,1.8,2471.047,13.29,0.025,186.8
2023-02-23T01:04:03,42.805,6.029,-0.038,-0.045,-0.022,108.0,107.0,105.0,13.4,1505.2,322.8,-0.8,1.8,2471.089,13.28,0.058,220.2
2023-02-23T01:07:03,42.805,6.029,-0.02,-0.037,-0.032,107.0,105.0,104.0,13.4,1505.2,335.2,-0.7,1.8,2471.02,13.28,0.042,208.4
2023-02-23T01:10:03,42.805,6.029,-0.008,-0.047,-0.016,105.0,106.0,103.0,13.4,1505.2,337.0,-0.8,1.8,2471.034,13.28,0.047,189.7
2023-02-23T01:13:03,42.805,6.029,-0.011,-0.037,-0.023,105.0,105.0,103.0,13.4,1505.2,319.8,-0.8,1.8,2471.051,13.28,0.038,196.6
2023-02-23T01:16:03,42.805,6.029,0.001,-0.043,-0.02,106.0,105.0,103.0,13.4,1505.2,329.3,-0.8,1.8,2471.049,13.28,0.043,178.7
2023-02-23T01:19:03,42.805,6.029,-0.011,-0.052,-0.045,104.0,105.0,103.0,13.4,1505.2,322.3,-0.7,1.8,2471.043,13.28,0.053,191.9
2023-02-23T01:22:03,42.805,6.029,-0.01,-0.031,-0.034,108.0,105.0,104.0,13.3,1505.2,326.8,-0.7,1.8,2471.047,13.29,0.032,197.9
2023-02-23T01:25:03,42.805,6.029,-0.011,-0.021,0.027,105.0,104.0,104.0,13.3,1505.2,323.1,-0.7,1.8,2471.0,13.29,0.023,207.6
2023-02-23T01:28:03,42.805,6.029,-0.003,-0.016,-0.005,108.0,106.0,104.0,13.4,1505.2,337.0,-0.8,1.8,2470.964,13.29,0.016,190.6
2023-02-23T01:31:03,42.805,6.029,-0.049,-0.038,-0.013,106.0,106.0,104.0,13.3,1505.2,325.4,-0.8,1.8,2470.987,13.29,0.062,232.2
2023-02-23T01:34:03,42.805,6.029,-0.03,-0.029,-0.024,106.0,106.0,104.0,13.4,1505.2,320.4,-0.8,1.8,2471.004,13.29,0.041,226.0
2023-02-23T01:37:03,42.805,6.029,0.007,-0.043,-0.028,106.0,106.0,103.0,13.4,1505.2,320.3,-0.8,1.8,2470.989,13.29,0.043,170.8
2023-02-23T01:40:03,42.805,6.029,-0.012,-0.049,-0.044,107.0,106.0,104.0,13.4,1505.2,329.5,-0.8,1.8,2471.024,13.29,0.05,193.8
2023-02-23T01:43:03,42.805,6.029,-0.015,-0.046,-0.035,106.0,106.0,103.0,13.3,1505.2,326.0,-0.8,1.8,2471.016,13.29,0.048,198.1
2023-02-23T01:46:03,42.805,6.029,-0.004,-0.05,-0.026,107.0,105.0,105.0,13.4,1505.2,324.3,-0.7,1.8,2471.005,13.29,0.05,184.6
2023-02-23T01:49:03,42.805,6.029,-0.016,-0.031,-0.049,105.0,105.0,104.0,13.4,1505.2,340.3,-0.8,1.8,2471.028,13.29,0.034,207.3
2023-02-23T01:52:03,42.805,6.029,-0.007,-0.031,-0.032,108.0,106.0,103.0,13.3,1505.2,320.3,-0.8,1.8,2470.991,13.29,0.031,192.7
2023-02-23T01:55:03,42.805,6.029,0.006,-0.041,-0.012,106.0,105.0,105.0,13.4,1505.2,322.9,-0.8,1.8,2470.964,13.29,0.041,171.7
2023-02-23T01:58:03,42.805,6.029,-0.018,-0.033,-0.024,106.0,105.0,103.0,13.3,1505.2,338.7,-0.7,1.8,2470.987,13.29,0.037,208.6
2023-02-23T02:04:03,42.805,6.029,-0.011,-0.039,-0.044,106.0,107.0,103.0,13.3,1505.2,333.8,-0.8,1.8,2471.036,13.28,0.04,195.7
2023-02-23T02:07:03,42.805,6.029,-0.037,-0.037,-0.038,107.0,106.0,104.0,13.4,1505.2,334.8,-0.8,1.8,2471.019,13.28,0.052,225.0
2023-02-23T02:10:03,42.805,6.029,-0.018,-0.033,-0.042,107.0,106.0,104.0,13.3,1505.2,328.3,-0.8,1.8,2471.001,13.28,0.037,208.6
2023-02-23T02:13:03,42.805,6.029,-0.019,-0.03,-0.048,105.0,108.0,104.0,13.3,1505.2,324.2,-0.8,1.8,2471.034,13.28,0.035,212.3
2023-02-23T02:16:03,42.805,6.029,-0.009,-0.02,0.001,106.0,108.0,103.0,13.4,1505.2,321.3,-0.7,1.8,2471.039,13.29,0.021,204.2
2023-02-23T02:19:03,42.805,6.029,-0.016,-0.023,-0.019,107.0,105.0,105.0,13.4,1505.2,323.1,-0.8,1.8,2471.002,13.29,0.028,214.8
2023-02-23T02:22:03,42.805,6.029,-0.025,-0.031,-0.029,107.0,105.0,104.0,13.4,1505.2,334.2,-0.8,1.8,2471.009,13.29,0.039,218.9
2023-02-23T02:25:03,42.805,6.029,-0.041,-0.018,-0.018,108.0,105.0,102.0,13.4,1505.2,328.7,-0.8,1.8,2470.942,13.29,0.044,246.3
2023-02-23T02:28:03,42.805,6.029,-0.016,-0.017,-0.018,108.0,105.0,105.0,13.4,1505.2,322.6,-0.7,1.8,2471.005,13.29,0.023,223.3
2023-02-23T02:31:03,42.805,6.029,-0.016,-0.008,-0.012,107.0,106.0,104.0,13.4,1505.2,337.3,-0.7,1.8,2470.983,13.29,0.017,243.4
2023-02-23T02:34:03,42.805,6.029,-0.029,-0.03,-0.058,106.0,105.0,103.0,13.4,1505.2,327.5,-0.8,1.8,2470.993,13.29,0.041,224.0
2023-02-23T02:37:03,42.805,6.029,-0.024,-0.022,-0.003,107.0,105.0,104.0,13.4,1505.2,325.5,-0.7,1.8,2470.971,13.29,0.032,227.5
2023-02-23T02:40:03,42.805,6.029,-0.031,0.0,-0.021,107.0,105.0,104.0,13.3,1505.2,332.6,-0.7,1.8,2470.967,13.29,0.03,270.0
2023-02-23T02:43:03,42.805,6.029,-0.017,-0.021,-0.023,107.0,107.0,105.0,13.4,1505.2,323.7,-0.8,1.8,2470.942,13.29,0.027,219.0
2023-02-23T02:46:03,42.805,6.029,-0.036,-0.024,-0.002,107.0,106.0,104.0,13.3,1505.2,340.0,-0.8,1.8,2470.97,13.29,0.043,236.3
2023-02-23T02:49:03,42.805,6.029,-0.009,-0.029,0.003,107.0,107.0,104.0,13.4,1505.2,319.0,-0.8,1.8,2470.974,13.29,0.03,197.2
2023-02-23T02:52:03,42.805,6.029,-0.014,-0.033,-0.026,106.0,107.0,103.0,13.4,1505.2,326.8,-0.8,1.8,2470.981,13.29,0.035,203.0
2023-02-23T02:55:03,42.805,6.029,-0.026,-0.016,-0.027,107.0,106.0,105.0,13.3,1505.2,338.0,-0.7,1.8,2470.979,13.29,0.03,238.4
2023-02-23T02:58:03,42.805,6.029,-0.001,-0.026,-0.025,107.0,106.0,103.0,13.4,1505.2,318.2,-0.8,1.8,2470.971,13.29,0.026,182.2
2023-02-23T03:04:03,42.805,6.029,-0.027,-0.032,-0.013,107.0,107.0,104.0,13.4,1505.2,329.0,-0.8,1.8,2470.968,13.28,0.041,220.2
2023-02-23T03:07:03,42.805,6.029,-0.022,-0.025,-0.012,106.0,106.0,103.0,13.4,1505.2,339.7,-0.8,1.8,2471.014,13.28,0.033,221.3
2023-02-23T03:10:03,42.805,6.029,-0.011,-0.004,-0.039,108.0,106.0,105.0,13.3,1505.2,330.3,-0.8,1.8,2470.996,13.28,0.011,250.0
2023-02-23T03:13:03,42.805,6.029,-0.011,-0.044,-0.026,108.0,107.0,105.0,13.4,1505.2,321.6,-0.8,1.8,2471.01,13.29,0.045,194.0
2023-02-23T03:16:03,42.805,6.029,-0.02,-0.017,-0.031,107.0,107.0,103.0,13.3,1505.2,339.1,-0.8,1.8,2471.004,13.29,0.026,229.6
2023-02-23T03:19:03,42.805,6.029,-0.023,-0.051,0.004,106.0,107.0,104.0,13.4,1505.2,316.1,-0.7,1.8,2470.938,13.29,0.055,204.3
2023-02-23T03:22:03,42.805,6.029,-0.023,-0.021,-0.022,106.0,106.0,105.0,13.4,1505.2,324.1,-0.7,1.8,2470.976,13.29,0.031,227.6
2023-02-23T03:25:03,42.805,6.029,-0.007,-0.031,-0.004,107.0,107.0,104.0,13.3,1505.2,326.5,-0.8,1.8,2470.91,13.29,0.031,192.7
2023-02-23T03:28:03,42.805,6.029,-0.026,-0.039,-0.016,108.0,105.0,104.0,13.4,1505.2,326.7,-0.8,1.8,2470.91,13.29,0.046,213.7
2023-02-23T03:31:03,42.805,6.029,-0.007,-0.028,-0.012,107.0,106.0,104.0,13.4,1505.2,330.8,-0.8,1.8,2470.932,13.29,0.028,194.0
2023-02-23T03:34:03,42.805,6.029,-0.045,-0.032,-0.019,106.0,106.0,104.0,13.4,1505.2,325.6,-0.8,1.9,2470.95,13.29,0.055,234.6
2023-02-23T03:37:03,42.805,6.029,-0.015,-0.032,-0.021,108.0,106.0,104.0,13.4,1505.2,334.5,-0.7,1.8,2471.013,13.29,0.035,205.1
2023-02-23T03:40:03,42.805,6.029,-0.007,-0.017,-0.033,106.0,107.0,105.0,13.4,1505.2,326.8,-0.8,1.8,2470.967,13.29,0.018,202.4
2023-02-23T03:43:03,42.805,6.029,-0.022,-0.015,-0.036,107.0,107.0,104.0,13.4,1505.2,329.5,-0.8,1.8,2470.995,13.29,0.026,235.7
2023-02-23T03:46:03,42.805,6.029,-0.021,-0.031,-0.032,106.0,107.0,104.0,13.3,1505.2,326.5,-0.7,1.8,2470.949,13.29,0.037,214.1
2023-02-23T03:49:03,42.805,6.029,-0.008,-0.02,-0.005,107.0,107.0,105.0,13.4,1505.2,326.5,-0.7,1.8,2470.972,13.29,0.021,201.8
2023-02-23T03:52:03,42.805,6.029,-0.025,-0.036,-0.016,107.0,106.0,105.0,13.4,1505.2,331.5,-0.8,1.8,2470.911,13.29,0.043,214.8
2023-02-23T03:55:03,42.805,6.029,-0.037,-0.033,-0.049,107.0,105.0,104.0,13.4,1505.2,319.8,-0.7,1.8,2470.916,13.29,0.049,228.3
2023-02-23T03:58:03,42.805,6.029,-0.015,-0.021,-0.011,108.0,106.0,104.0,13.4,1505.2,326.7,-0.8,1.8,2470.959,13.29,0.025,215.5
2023-02-23T04:04:03,42.805,6.029,-0.021,-0.032,-0.027,106.0,107.0,105.0,13.4,1505.2,319.8,-0.7,1.8,2471.049,13.28,0.038,213.3
2023-02-23T04:07:03,42.805,6.029,-0.036,-0.01,-0.036,107.0,106.0,105.0,13.4,1505.2,323.7,-0.7,1.8,2471.006,13.28,0.037,254.5
2023-02-23T04:10:03,42.805,6.029,-0.024,-0.024,-0.017,108.0,107.0,104.0,13.4,1505.2,333.4,-0.8,1.8,2471.04,13.29,0.033,225.0
2023-02-23T04:13:03,42.805,6.029,-0.021,-0.029,-0.009,108.0,105.0,105.0,13.4,1505.2,337.0,-0.7,1.8,2470.979,13.29,0.035,215.9
2023-02-23T04:16:03,42.805,6.029,-0.023,-0.025,-0.028,107.0,106.0,104.0,13.3,1505.2,328.7,-0.8,1.8,2470.957,13.29,0.033,222.6
2023-02-23T04:19:03,42.805,6.029,-0.016,-0.017,-0.009,108.0,106.0,106.0,13.4,1505.2,329.5,-0.8,1.8,2470.981,13.29,0.023,223.3
2023-02-23T04:22:03,42.805,6.029,-0.004,-0.011,-0.026,108.0,107.0,105.0,13.4,1505.2,325.4,-0.7,1.8,2470.97,13.29,0.011,200.0
2023-02-23T04:25:03,42.805,6.029,-0.01,-0.028,-0.02,107.0,107.0,104.0,13.4,1505.2,338.0,-0.8,1.8,2470.96,13.29,0.029,199.6
2023-02-23T04:28:03,42.805,6.029,-0.022,-0.009,-0.016,107.0,106.0,105.0,13.4,1505.2,331.2,-0.7,1.8,2470.948,13.29,0.023,247.8
2023-02-23T04:31:03,42.805,6.029,0.005,-0.036,-0.014,107.0,106.0,104.0,13.4,1505.2,320.5,-0.8,1.8,2470.979,13.29,0.036,172.1
2023-02-23T04:34:03,42.805,6.029,-0.032,-0.023,-0.037,106.0,106.0,103.0,13.4,1505.2,329.8,-0.8,1.8,2470.976,13.29,0.039,234.3
2023-02-23T04:37:03,42.805,6.029,-0.019,-0.029,-0.047,107.0,106.0,104.0,13.4,1505.2,323.8,-0.8,1.8,2470.991,13.29,0.034,213.2
2023-02-23T04:40:03,42.805,6.029,-0.011,-0.026,-0.033,108.0,106.0,104.0,13.4,1505.2,333.8,-0.8,1.8,2470.973,13.29,0.028,202.9
2023-02-23T04:43:03,42.805,6.029,-0.028,-0.031,-0.034,106.0,106.0,104.0,13.4,1505.2,324.7,-0.7,1.8,2470.974,13.29,0.041,222.1
2023-02-23T04:46:03,42.805,6.029,-0.016,-0.026,-0.04,108.0,106.0,105.0,13.3,1505.2,317.2,-0.8,1.8,2470.965,13.29,0.03,211.6
2023-02-23T04:49:03,42.805,6.029,-0.038,-0.017,-0.004,108.0,107.0,105.0,13.3,1505.2,332.2,-0.8,1.9,2470.963,13.29,0.041,245.9
2023-02-23T04:52:03,42.805,6.029,-0.034,-0.004,-0.016,108.0,107.0,105.0,13.4,1505.2,339.6,-0.7,1.8,2470.975,13.29,0.034,263.3
2023-02-23T04:55:03,42.805,6.029,-0.04,-0.002,-0.02,107.0,107.0,105.0,13.4,1505.2,336.2,-0.7,1.8,2470.914,13.29,0.04,267.1
2023-02-23T04:58:03,42.805,6.029,-0.03,-0.02,-0.071,107.0,106.0,104.0,13.4,1505.2,319.6,-0.7,1.8,2471.03,13.29,0.036,236.3
2023-02-23T05:04:03,42.805,6.029,-0.023,-0.004,-0.023,108.0,106.0,105.0,13.4,1505.2,338.7,-0.8,1.9,2471.069,13.28,0.023,260.1
2023-02-23T05:07:03,42.805,6.029,-0.037,0.0,-0.039,107.0,106.0,105.0,13.4,1505.2,327.6,-0.8,1.8,2471.02,13.28,0.037,270.0
2023-02-23T05:10:03,42.805,6.029,-0.026,-0.018,-0.015,107.0,105.0,103.0,13.3,1505.2,323.9,-0.8,1.8,2471.028,13.29,0.031,235.3
2023-02-23T05:13:03,42.805,6.029,-0.019,-0.03,-0.019,108.0,106.0,105.0,13.4,1505.2,321.8,-0.8,1.8,2471.027,13.29,0.035,212.3
2023-02-23T05:16:03,42.805,6.029,-0.044,0.004,-0.014,108.0,107.0,105.0,13.3,1505.2,337.5,-0.8,1.8,2471.007,13.29,0.044,275.2
2023-02-23T05:19:03,42.805,6.029,-0.036,-0.006,-0.015,107.0,106.0,105.0,13.4,1505.2,322.9,-0.8,1.8,2471.033,13.29,0.036,260.5
2023-02-23T05:22:03,42.805,6.029,-0.034,-0.013,-0.015,107.0,106.0,106.0,13.4,1505.2,327.9,-0.8,1.8,2471.006,13.29,0.036,249.1
2023-02-23T05:25:03,42.805,6.029,-0.026,0.002,-0.019,107.0,107.0,105.0,13.4,1505.2,330.7,-0.8,1.8,2471.019,13.29,0.026,274.4
2023-02-23T05:28:03,42.805,6.029,-0.023,-0.002,-0.021,107.0,106.0,105.0,13.3,1505.2,333.0,-0.8,1.8,2471.023,13.29,0.023,265.0
2023-02-23T05:31:03,42.805,6.029,-0.011,-0.002,-0.006,106.0,106.0,105.0,13.3,1505.2,326.8,-0.8,1.8,2471.012,13.29,0.011,259.7
2023-02-23T05:34:03,42.805,6.029,-0.01,-0.014,-0.024,107.0,106.0,104.0,13.3,1505.2,324.1,-0.7,1.8,2471.037,13.29,0.017,215.5
2023-02-23T05:37:03,42.805,6.029,-0.026,-0.017,-0.034,108.0,106.0,104.0,13.3,1505.2,319.3,-0.8,1.8,2471.034,13.29,0.031,236.8
2023-02-23T05:40:03,42.805,6.029,-0.032,-0.007,-0.011,107.0,107.0,104.0,13.4,1505.2,336.8,-0.8,1.8,2471.037,13.29,0.032,257.7
2023-02-23T05:43:03,42.805,6.029,-0.027,0.001,-0.017,108.0,108.0,105.0,13.3,1505.2,331.6,-0.7,1.8,2471.055,13.29,0.027,272.1
2023-02-23T05:46:03,42.805,6.029,-0.019,-0.012,-0.022,107.0,107.0,106.0,13.4,1505.2,326.5,-0.8,1.8,2471.041,13.29,0.022,237.7
2023-02-23T05:49:03,42.805,6.029,-0.028,-0.006,0.015,107.0,106.0,103.0,13.3,1505.2,322.4,-0.8,1.8,2471.055,13.29,0.028,257.9
2023-02-23T05:52:03,42.805,6.029,-0.029,-0.025,0.005,106.0,107.0,104.0,13.4,1505.2,317.2,-0.7,1.8,2471.019,13.29,0.038,229.2
2023-02-23T05:55:03,42.805,6.029,-0.031,0.0,-0.03,108.0,105.0,105.0,13.4,1505.2,327.1,-0.8,1.9,2471.015,13.29,0.03,270.0
2023-02-23T05:58:03,42.805,6.029,0.001,-0.001,0.015,105.0,107.0,105.0,13.4,1505.2,333.0,-0.7,1.8,2471.026,13.29,0.001,135.0
2023-02-23T06:04:03,42.805,6.029,-0.023,-0.004,-0.027,107.0,108.0,105.0,13.4,1505.2,324.4,-0.8,1.8,2471.098,13.28,0.023,260.1
2023-02-23T06:07:03,42.805,6.029,-0.019,-0.02,0.015,107.0,106.0,105.0,13.3,1505.2,339.7,-0.8,1.8,2471.115,13.29,0.027,223.5
2023-02-23T06:10:03,42.805,6.029,-0.017,-0.026,0.006,107.0,107.0,105.0,13.3,1505.2,318.7,-0.8,1.8,2471.079,13.29,0.031,213.2
2023-02-23T06:13:03,42.805,6.029,-0.006,0.0,-0.022,107.0,107.0,104.0,13.3,1505.2,324.4,-0.8,1.8,2471.08,13.29,0.006,270.0
2023-02-23T06:16:03,42.805,6.029,-0.021,-0.017,-0.001,108.0,107.0,105.0,13.4,1505.2,336.6,-0.8,1.8,2471.101,13.29,0.027,231.0
2023-02-23T06:19:03,42.805,6.029,-0.005,-0.012,-0.005,108.0,107.0,104.0,13.4,1505.2,325.4,-0.8,1.8,2471.087,13.29,0.013,202.6
2023-02-23T06:22:03,42.805,6.029,-0.038,-0.018,-0.028,106.0,106.0,105.0,13.4,1505.2,324.0,-0.8,1.8,2471.113,13.29,0.042,244.7
2023-02-23T06:25:03,42.805,6.029,-0.025,0.009,-0.021,107.0,107.0,104.0,13.4,1505.2,333.0,-0.7,1.8,2471.102,13.29,0.026,289.8
2023-02-23T06:28:03,42.805,6.029,-0.026,-0.008,-0.024,108.0,105.0,104.0,13.3,1505.2,338.2,-0.8,1.9,2471.077,13.29,0.027,252.9
2023-02-23T06:31:03,42.805,6.029,-0.009,-0.01,-0.054,107.0,108.0,105.0,13.4,1505.2,316.1,-0.8,1.8,2471.112,13.29,0.013,222.0
2023-02-23T06:34:03,42.805,6.029,-0.027,0.003,-0.007,108.0,107.0,105.0,13.4,1505.2,332.6,-0.8,1.8,2471.081,13.29,0.027,276.3
2023-02-23T06:37:03,42.805,6.029,-0.001,-0.039,-0.017,108.0,105.0,104.0,13.4,1505.2,327.2,-0.8,1.9,2471.097,13.29,0.039,181.5
2023-02-23T06:40:03,42.805,6.029,-0.002,-0.02,0.002,107.0,107.0,104.0,13.4,1505.2,326.0,-0.7,1.8,2471.08,13.29,0.02,185.7
2023-02-23T06:43:03,42.805,6.029,-0.015,-0.02,-0.011,108.0,107.0,104.0,13.4,1505.2,325.2,-0.8,1.8,2471.136,13.29,0.025,216.9
2023-02-23T06:46:03,42.805,6.029,-0.003,-0.033,-0.03,106.0,107.0,104.0,13.4,1505.2,324.7,-0.7,1.9,2471.122,13.29,0.033,185.2
2023-02-23T06:49:03,42.805,6.029,-0.029,-0.013,-0.017,107.0,106.0,104.0,13.3,1505.2,330.4,-0.8,1.8,2471.12,13.29,0.031,245.9
2023-02-23T06:52:03,42.805,6.029,-0.023,-0.003,-0.012,108.0,105.0,105.0,13.4,1505.2,336.1,-0.8,1.8,2471.112,13.29,0.023,262.6
2023-02-23T06:55:03,42.805,6.029,-0.015,-0.016,-0.03,107.0,107.0,105.0,13.4,1505.2,330.9,-0.7,1.8,2471.152,13.29,0.021,223.1
2023-02-23T06:58:03,42.805,6.029,-0.01,-0.029,-0.023,108.0,107.0,104.0,13.4,1505.2,316.6,-0.8,1.8,2471.106,13.29,0.03,199.0
2023-02-23T07:04:03,42.805,6.029,-0.018,-0.012,-0.008,107.0,106.0,104.0,13.4,1505.2,322.6,-0.7,1.8,2471.21,13.28,0.021,236.3
2023-02-23T07:07:03,42.805,6.029,-0.028,-0.007,-0.027,109.0,104.0,105.0,13.3,1505.2,322.0,-0.8,1.8,2471.191,13.29,0.028,256.0
2023-02-23T07:10:03,42.805,6.029,-0.007,-0.006,0.013,108.0,106.0,105.0,13.4,1505.2,323.1,-0.7,1.8,2471.18,13.29,0.009,229.4
2023-02-23T07:13:03,42.805,6.029,-0.017,-0.007,0.003,106.0,107.0,105.0,13.4,1505.2,320.1,-0.8,1.8,2471.209,13.29,0.018,247.6
2023-02-23T07:16:03,42.805,6.029,-0.002,-0.019,-0.008,106.0,107.0,104.0,13.3,1505.2,319.4,-0.8,1.8,2471.185,13.29,0.019,186.0
2023-02-23T07:19:03,42.805,6.029,-0.009,-0.027,-0.022,105.0,106.0,104.0,13.4,1505.2,333.4,-0.8,1.8,2471.188,13.29,0.028,198.4
2023-02-23T07:22:03,42.805,6.029,0.001,-0.011,-0.003,106.0,107.0,105.0,13.4,1505.2,333.4,-0.8,1.9,2471.172,13.29,0.011,174.8
2023-02-23T07:25:03,42.805,6.029,-0.024,-0.012,-0.022,107.0,105.0,104.0,13.4,1505.2,325.8,-0.8,1.8,2471.188,13.29,0.026,243.4
2023-02-23T07:28:03,42.805,6.029,-0.028,-0.027,-0.026,106.0,107.0,105.0,13.3,1505.2,318.7,-0.8,1.8,2471.187,13.29,0.038,226.0
2023-02-23T07:31:03,42.805,6.029,-0.017,-0.024,-0.017,106.0,106.0,103.0,13.3,1505.2,331.6,-0.7,1.8,2471.166,13.29,0.029,215.3
2023-02-23T07:34:03,42.805,6.029,-0.036,-0.022,-0.015,106.0,106.0,104.0,13.3,1505.2,326.0,-0.8,1.8,2471.159,13.29,0.042,238.6
2023-02-23T07:37:03,42.805,6.029,-0.047,0.009,-0.006,106.0,105.0,104.0,13.4,1505.2,339.3,-0.7,1.8,2471.188,13.29,0.047,280.8
2023-02-23T07:40:03,42.805,6.029,-0.019,-0.015,0.011,106.0,106.0,105.0,13.3,1505.2,322.9,-0.8,1.8,2471.183,13.29,0.024,231.7
2023-02-23T07:43:03,42.805,6.029,-0.023,-0.015,-0.013,106.0,105.0,104.0,13.4,1505.2,337.8,-0.7,1.8,2471.167,13.29,0.027,236.9
2023-02-23T07:46:03,42.805,6.029,-0.027,-0.02,-0.011,106.0,105.0,104.0,13.4,1505.2,334.5,-0.8,1.8,2471.206,13.29,0.033,233.5
2023-02-23T07:49:03,42.805,6.029,-0.027,-0.004,-0.016,106.0,106.0,103.0,13.4,1505.2,319.6,-0.8,1.8,2471.171,13.29,0.027,261.6
2023-02-23T07:52:03,42.805,6.029,-0.017,-0.007,-0.023,106.0,105.0,102.0,13.3,1505.2,322.5,-0.8,1.8,2471.203,13.29,0.018,247.6
2023-02-23T07:55:03,42.805,6.029,-0.013,-0.002,0.014,105.0,106.0,103.0,13.3,1505.2,331.0,-0.8,1.8,2471.197,13.29,0.013,261.3
2023-02-23T07:58:03,42.805,6.029,-0.024,-0.013,-0.011,106.0,106.0,103.0,13.3,1505.2,324.4,-0.8,1.8,2471.204,13.29,0.027,241.6
2023-02-23T08:04:03,42.805,6.029,-0.026,0.0,-0.029,106.0,106.0,104.0,13.4,1505.2,318.8,-0.8,1.8,2471.262,13.28,0.026,270.0
2023-02-23T08:07:03,42.805,6.029,-0.038,-0.023,-0.051,105.0,104.0,103.0,13.4,1505.2,325.0,-0.8,1.8,2471.218,13.29,0.044,238.8
2023-02-23T08:10:03,42.805,6.029,-0.011,-0.002,0.004,104.0,106.0,104.0,13.4,1505.2,328.8,-0.8,1.9,2471.268,13.29,0.011,259.7
2023-02-23T08:13:03,42.805,6.029,-0.013,-0.027,-0.025,105.0,106.0,103.0,13.3,1505.2,322.4,-0.8,1.8,2471.283,13.29,0.029,205.7
2023-02-23T08:16:03,42.805,6.029,-0.02,-0.022,-0.044,106.0,106.0,103.0,13.4,1505.2,336.1,-0.8,1.8,2471.262,13.29,0.029,222.3
2023-02-23T08:19:03,42.805,6.029,-0.021,-0.015,-0.02,105.0,104.0,104.0,13.3,1505.2,318.1,-0.7,1.8,2471.272,13.29,0.025,234.5
2023-02-23T08:22:03,42.805,6.029,-0.017,-0.028,-0.023,105.0,105.0,104.0,13.4,1505.2,324.9,-0.8,1.8,2471.261,13.29,0.032,211.3
2023-02-23T08:25:03,42.805,6.029,-0.02,-0.007,-0.012,106.0,104.0,104.0,13.4,1505.2,341.2,-0.8,1.8,2471.253,13.29,0.021,250.7
2023-02-23T08:28:03,42.805,6.029,-0.011,0.0,-0.004,105.0,105.0,104.0,13.4,1505.2,323.5,-0.8,1.8,2471.237,13.29,0.011,270.0
2023-02-23T08:31:03,42.805,6.029,-0.025,0.0,-0.016,106.0,105.0,103.0,13.4,1505.2,325.1,-0.8,1.8,2471.24,13.29,0.025,270.0
2023-02-23T08:34:03,42.805,6.029,-0.029,-0.007,-0.012,106.0,104.0,103.0,13.4,1505.2,332.5,-0.8,1.8,2471.195,13.29,0.029,256.4
2023-02-23T08:37:03,42.805,6.029,-0.031,-0.017,-0.031,106.0,106.0,103.0,13.3,1505.2,335.6,-0.8,1.8,2471.262,13.29,0.035,241.3
2023-02-23T08:40:03,42.805,6.029,-0.014,0.007,0.009,106.0,105.0,105.0,13.3,1505.2,331.3,-0.8,1.8,2471.259,13.29,0.015,296.6
2023-02-23T08:43:03,42.805,6.029,-0.002,-0.023,-0.007,107.0,106.0,104.0,13.4,1505.2,321.2,-0.8,1.8,2471.226,13.29,0.023,185.0
2023-02-23T08:46:03,42.805,6.029,-0.009,-0.001,-0.033,107.0,104.0,104.0,13.4,1505.2,337.8,-0.7,1.8,2471.222,13.29,0.009,263.7
2023-02-23T08:49:03,42.805,6.029,0.004,-0.018,-0.017,107.0,106.0,104.0,13.4,1505.2,330.3,-0.8,1.8,2471.275,13.29,0.018,167.5
2023-02-23T08:52:03,42.805,6.029,-0.017,-0.027,-0.004,107.0,104.0,104.0,13.4,1505.2,329.8,-0.7,1.8,2471.214,13.29,0.031,212.2
2023-02-23T08:55:03,42.805,6.029,-0.011,-0.015,-0.015,107.0,105.0,104.0,13.4,1505.2,322.6,-0.8,1.8,2471.245,13.29,0.018,216.3
2023-02-23T08:58:03,42.805,6.029,-0.012,-0.024,0.001,106.0,105.0,104.0,13.4,1505.2,329.8,-0.8,1.8,2471.243,13.29,0.026,206.6
2023-02-23T09:04:03,42.805,6.029,-0.026,-0.009,-0.022,107.0,106.0,104.0,13.4,1505.2,335.7,-0.8,1.8,2471.327,13.29,0.027,250.9
2023-02-23T09:07:03,42.805,6.029,-0.004,-0.038,-0.027,106.0,105.0,104.0,13.4,1505.2,319.7,-0.8,1.8,2471.276,13.29,0.038,186.0
2023-02-23T09:10:03,42.805,6.029,-0.004,-0.005,-0.001,107.0,104.0,105.0,13.3,1505.2,325.4,-0.7,1.8,2471.269,13.29,0.006,218.7
2023-02-23T09:13:03,42.805,6.029,0.009,-0.028,-0.011,106.0,106.0,104.0,13.4,1505.2,329.1,-0.8,1.8,2471.295,13.29,0.029,162.2
2023-02-23T09:16:03,42.805,6.029,0.0,-0.025,-0.04,106.0,104.0,104.0,13.4,1505.2,328.6,-0.7,1.8,2471.287,13.29,0.025,180.0
2023-02-23T09:19:03,42.805,6.029,0.003,-0.011,-0.02,107.0,104.0,103.0,13.4,1505.2,333.0,-0.8,1.8,2471.217,13.29,0.011,164.7
2023-02-23T09:22:03,42.805,6.029,-0.028,-0.03,-0.024,105.0,104.0,103.0,13.4,1505.2,329.5,-0.7,1.8,2471.291,13.29,0.041,223.0
2023-02-23T09:25:03,42.805,6.029,-0.007,-0.015,-0.025,105.0,106.0,103.0,13.3,1505.2,319.0,-0.8,1.8,2471.266,13.29,0.016,205.0
2023-02-23T09:28:03,42.805,6.029,-0.009,-0.01,0.017,104.0,105.0,104.0,13.4,1505.2,331.7,-0.8,1.8,2471.231,13.29,0.013,222.0
2023-02-23T09:31:03,42.805,6.029,-0.019,-0.012,-0.029,105.0,105.0,103.0,13.4,1505.2,338.9,-0.7,1.8,2471.281,13.29,0.022,237.7
2023-02-23T09:34:03,42.805,6.029,-0.018,-0.023,-0.018,105.0,106.0,103.0,13.4,1505.2,325.4,-0.7,1.8,2471.295,13.29,0.029,218.0
2023-02-23T09:37:03,42.805,6.029,-0.028,-0.04,-0.038,107.0,105.0,105.0,13.4,1505.2,324.4,-0.8,1.8,2471.25,13.29,0.048,215.0
2023-02-23T09:40:03,42.805,6.029,-0.015,-0.025,-0.016,106.0,105.0,103.0,13.4,1505.2,320.4,-0.8,1.8,2471.261,13.29,0.029,211.0
2023-02-23T09:43:03,42.805,6.029,-0.011,-0.026,-0.02,105.0,105.0,103.0,13.4,1505.2,339.4,-0.8,1.8,2471.274,13.29,0.028,202.9
2023-02-23T09:46:03,42.805,6.029,-0.012,-0.029,-0.016,106.0,104.0,103.0,13.4,1505.2,319.9,-0.7,1.8,2471.273,13.29,0.031,202.5
2023-02-23T09:49:03,42.805,6.029,-0.012,-0.029,-0.02,106.0,106.0,103.0,13.3,1505.2,321.4,-0.8,1.8,2471.246,13.29,0.031,202.5